Total_Precipitation_Accumulation
2.83 3.10 3.10 3.03 3.04 3.18 3.12 2.97 2.80 2.79 2.79 2.61 2.41 2.44 2.49 2.52 2.66 2.86 3.02 3.01 3.02 3.29 3.76 4.05 4.10 3.91 3.77 3.68 3.60 3.43 3.21 3.08 3.00 2.87 2.76 2.64 2.52 2.44 2.41 2.40 2.36 2.18 2.11
3.41 3.57 3.53 3.39 3.25 3.38 3.36 3.30 3.13 3.19 3.19 3.15 2.93 2.80 2.72 2.80 2.82 2.90 3.16 3.41 3.27 3.25 3.69 4.28 4.56 4.50 4.31 4.10 3.80 3.50 3.37 3.29 3.21 3.06 2.93 2.74 2.53 2.47 2.47 2.47 2.48 2.31 2.17
3.99 4.07 4.05 3.73 3.51 3.58 3.83 3.86 3.75 3.70 3.44 3.36 3.27 3.22 3.08 2.93 2.95 3.03 3.29 3.78 3.66 3.72 3.90 4.02 4.16 4.21 4.35 4.45 4.33 4.03 3.73 3.51 3.39 3.28 3.17 3.05 2.83 2.62 2.57 2.57 2.63 2.57 2.37
4.05 4.21 4.18 3.99 3.87 3.84 4.13 4.30 4.28 4.21 4.02 3.93 3.72 3.49 3.29 3.25 3.21 3.30 3.43 3.71 3.99 3.95 4.15 4.06 3.88 3.87 4.12 4.33 4.42 4.42 4.19 3.83 3.60 3.62 3.57 3.41 3.14 2.96 2.80 2.69 2.70 2.67 2.55
4.39 4.51 4.38 4.35 4.41 4.52 4.52 4.26 4.42 4.28 4.27 4.19 3.73 3.56 3.32 3.27 3.44 3.39 3.44 3.53 3.76 3.79 3.88 3.87 3.86 3.83 3.97 4.29 4.36 4.53 4.48 4.29 4.05 3.89 3.94 3.82 3.55 3.28 3.05 2.85 2.69 2.62 2.57
4.78 5.08 5.05 4.95 4.95 4.94 4.75 4.66 4.71 4.46 4.28 4.18 3.74 3.57 3.37 3.23 3.25 3.35 3.31 3.32 3.35 3.27 3.30 3.41 3.70 3.59 3.73 3.90 3.97 4.14 4.38 4.50 4.30 4.01 3.92 3.98 3.77 3.37 3.01 2.88 2.79 2.70 2.63
5.59 5.67 5.48 5.35 5.21 5.18 5.11 5.08 4.95 4.73 4.42 4.33 4.32 3.96 3.41 3.19 3.17 3.10 3.09 3.15 3.19 3.15 3.18 3.24 3.20 3.14 3.19 3.41 3.47 3.59 3.88 4.23 4.28 4.21 4.12 4.03 3.89 3.55 3.16 2.90 2.84 2.80 2.72
5.79 5.69 5.77 5.71 5.55 5.43 5.30 5.13 5.02 4.82 4.43 4.35 4.38 4.31 3.82 3.52 3.14 2.74 2.71 2.76 2.90 3.06 2.94 2.85 2.93 2.97 2.91 3.02 3.01 3.29 3.55 3.80 4.04 4.13 4.00 3.85 3.69 3.56 3.46 3.27 3.09 2.98 2.89
5.91 5.73 5.62 5.44 5.35 5.22 5.15 5.02 4.81 4.65 4.42 4.27 4.24 4.44 4.10 3.66 3.23 2.90 2.51 2.45 2.58 2.71 2.63 2.62 2.59 2.66 2.75 2.89 2.85 2.99 3.21 3.27 3.61 3.89 3.95 3.76 3.56 3.42 3.35 3.32 3.26 3.19 3.12
5.48 5.24 5.15 5.08 4.96 4.60 4.43 4.30 4.28 4.14 4.01 3.81 3.86 3.79 3.63 3.43 3.47 3.36 3.06 2.83 2.76 2.71 2.63 2.52 2.44 2.53 2.54 2.72 2.89 2.87 2.86 2.85 3.11 3.45 3.71 3.75 3.57 3.51 3.47 3.41 3.37 3.36 3.35
4.89 4.60 4.50 4.40 4.17 3.77 3.44 3.35 3.54 3.58 3.58 3.48 3.47 3.47 3.46 3.31 3.24 3.25 3.20 3.13 3.07 2.86 2.72 2.70 2.65 2.59 2.51 2.50 2.60 2.72 2.69 2.52 2.60 2.79 3.16 3.48 3.59 3.65 3.62 3.46 3.44 3.44 3.46
4.35 3.97 3.63 3.42 3.16 2.98 2.80 2.78 2.88 2.96 3.19 3.28 3.40 3.39 3.39 3.28 3.12 3.15 3.06 3.04 3.09 2.96 2.76 2.58 2.51 2.45 2.43 2.39 2.32 2.54 2.33 2.20 2.20 2.27 2.47 2.75 3.06 3.25 3.20 3.26 3.40 3.49 3.57
3.57 3.26 2.94 2.83 2.68 2.59 2.53 2.56 2.60 2.57 2.67 2.84 2.95 3.05 3.13 3.10 3.07 3.12 3.22 3.19 3.03 2.86 2.76 2.55 2.32 2.23 2.23 2.28 2.28 2.37 2.12 1.99 1.92 1.90 1.92 2.04 2.20 2.46 2.68 2.85 2.97 3.13 3.25
2.78 2.56 2.33 2.16 2.14 2.21 2.17 2.27 2.31 2.34 2.34 2.39 2.45 2.70 2.81 2.81 2.84 2.80 2.86 3.01 3.06 2.89 2.64 2.43 2.27 2.11 2.02 1.94 2.00 2.06 1.78 1.78 1.63 1.60 1.61 1.66 1.72 1.81 1.98 2.14 2.23 2.27 2.33
2.12 1.95 1.87 1.83 1.81 1.86 1.99 2.03 1.98 2.01 2.12 2.14 2.18 2.33 2.36 2.35 2.41 2.47 2.58 2.70 2.92 2.93 2.65 2.33 2.16 1.99 1.82 1.70 1.77 1.58 1.51 1.55 1.40 1.34 1.33 1.35 1.37 1.45 1.54 1.62 1.75 1.75 1.73
1.83 1.77 1.69 1.64 1.59 1.58 1.61 1.70 1.75 1.77 1.83 1.94 2.02 2.05 2.06 2.01 2.06 2.13 2.31 2.48 2.57 2.64 2.52 2.12 1.85 1.71 1.64 1.49 1.60 1.43 1.44 1.45 1.24 1.19 1.17 1.20 1.26 1.33 1.36 1.41 1.45 1.52 1.51
1.60 1.55 1.48 1.39 1.34 1.34 1.39 1.49 1.52 1.56 1.63 1.73 1.83 1.83 1.83 1.82 1.90 1.89 1.92 1.99 2.16 2.28 2.26 1.96 1.77 1.69 1.64 1.54 1.56 1.52 1.48 1.39 1.22 1.21 1.14 1.14 1.17 1.21 1.23 1.25 1.24 1.28 1.38
1.50 1.47 1.37 1.25 1.17 1.16 1.21 1.27 1.29 1.32 1.45 1.51 1.54 1.58 1.55 1.59 1.65 1.63 1.67 1.69 1.79 1.95 2.01 1.99 1.88 1.81 1.72 1.61 1.65 1.65 1.38 1.20 1.16 1.18 1.08 1.02 1.04 1.04 1.07 1.10 1.09 1.07 1.10
1.49 1.40 1.25 1.17 1.11 1.07 1.07 1.13 1.18 1.19 1.23 1.31 1.32 1.39 1.41 1.46 1.42 1.36 1.42 1.51 1.56 1.62 1.82 1.85 1.75 1.69 1.60 1.50 1.65 1.56 1.43 1.53 1.19 1.10 1.01 0.94 0.93 0.90 0.91 0.93 0.95 0.95 0.90
1.40 1.32 1.25 1.18 1.11 1.05 1.04 1.05 1.04 1.12 1.16 1.19 1.18 1.21 1.20 1.24 1.26 1.31 1.34 1.49 1.55 1.66 1.74 1.74 1.70 1.65 1.57 1.50 1.64 1.65 1.62 1.57 1.33 1.01 0.96 0.85 0.88 0.87 0.85 0.84 0.83 0.83 0.81
1.40 1.33 1.25 1.19 1.08 0.95 0.89 0.91 0.93 0.97 1.07 1.10 1.09 1.06 1.05 1.10 1.19 1.21 1.17 1.29 1.44 1.62 1.62 1.62 1.61 1.63 1.56 1.61 1.57 1.53 1.57 1.62 1.50 1.25 1.25 1.03 0.97 1.01 0.99 0.93 0.85 0.83 0.79
1.35 1.30 1.20 1.08 0.99 0.87 0.88 0.84 0.85 0.91 1.01 1.05 1.02 1.00 0.97 0.96 0.99 1.03 1.02 1.10 1.27 1.40 1.49 1.58 1.58 1.60 1.59 1.68 1.70 1.68 1.67 1.72 1.69 1.40 1.43 1.33 1.18 1.25 1.16 1.04 0.94 0.81 0.73
1.32 1.24 1.13 1.08 1.03 0.94 0.82 0.73 0.75 0.85 0.98 0.99 0.97 1.01 0.90 0.81 0.91 0.95 0.98 0.98 1.01 1.04 1.18 1.41 1.57 1.63 1.75 1.88 1.97 1.89 1.82 1.78 1.76 1.55 1.64 1.58 1.41 1.45 1.17 1.01 1.05 0.90 0.78
1.22 1.22 1.21 1.25 1.24 1.01 0.79 0.66 0.73 0.89 0.97 0.87 0.83 0.90 0.97 0.98 0.92 0.94 0.96 0.99 1.01 1.00 1.03 1.11 1.38 1.49 1.54 1.74 1.95 1.98 1.95 1.86 1.83 1.79 1.88 1.84 1.46 1.37 1.21 1.37 1.33 1.13 0.95
1.13 1.16 1.18 1.25 1.24 1.08 0.88 0.72 0.74 0.86 0.93 0.88 0.85 0.81 0.82 0.88 0.87 0.93 1.02 1.17 1.22 1.20 0.97 1.01 1.15 1.24 1.30 1.45 1.61 1.81 2.01 2.10 2.01 1.87 1.85 1.86 1.62 1.48 1.49 1.68 1.58 1.48 1.24
1.04 1.02 1.07 1.16 1.13 1.03 0.84 0.67 0.67 0.71 0.81 0.93 1.02 1.00 0.95 0.89 0.87 0.93 1.07 1.26 1.33 1.31 1.29 1.41 1.51 1.50 1.48 1.54 1.50 1.68 2.00 2.13 2.08 2.00 1.84 1.86 1.83 1.77 1.84 1.85 1.81 1.69 1.60